Estación Meteorológica Peña el Pijo (Robertgarden) [ 09/28/20 19:40:12 CEST ]

Fecha Hora Presion(HPa) Temp (°C) Humedad % Rocio (°C) Viento ( m/s) Direccion Lluvia 1Hora(mm) Lluvia 24H(mm) LLuvia Total(mm)
2020-May-03 01:09:08 1013.200 - - - - W     39.88
2020-May-03 02:09:21 1012.900 - - - - W     39.88
2020-May-03 03:09:36 1012.000 - - - - W     39.88
2020-May-03 04:09:26 1011.800 - - - - W     39.88
2020-May-03 05:09:42 1011.700 - - - - W     39.88
2020-May-03 06:09:06 1011.400 - - - - W     39.88
2020-May-03 07:09:32 1011.400 - - - - W     39.88
2020-May-03 08:09:34 1011.700 - - - - W     39.88
2020-May-03 09:10:11 1011.800 - - - - W     39.88
2020-May-03 10:09:58 1011.300 - - - - W     39.88
2020-May-03 11:09:15 1011.000 - - - - W     39.88
2020-May-03 12:09:22 1010.900 - - - - W     39.88
2020-May-03 13:09:06 1010.500 - - - - W     39.88
2020-May-03 14:09:29 1009.900 - - - - W     39.88
2020-May-03 15:09:02 1009.600 - - - - W     39.88
2020-May-03 16:09:09 1009.000 - - - - W     39.88
2020-May-03 17:09:15 1008.800 - - - - W     39.88
2020-May-03 18:08:47 1008.500 - - - - W     39.88
2020-May-03 19:08:54 1008.300 - - - - W     39.88
2020-May-03 20:09:15 1008.700 - - - - W     39.88
2020-May-03 21:09:07 1009.100 - - - - W     39.88
2020-May-03 22:09:07 1009.800 - - - - W     39.88
2020-May-03 23:09:34 1010.600 - - - - W     39.88

Temperatura Máxima:    Temperatura Mínima:
Presión Máxima:1013.200 Hpa    Presión Mínima:1008.300 Hpa


Volver